Regional Weather Roundup
Issued by NWS

Home | Current Version | Previous Version | Graphics & Text | Print | Product List | Glossary On
Versions: 1 2 3 4 5 6 7 8 9 10 11 12 13 14 15 16 17 18 19 20 21 22 23 24 25 26 27 28 29 30 31 32 33 34 35 36 37 38 39 40 41 42 43 44 45 46 47 48 49 50
000
ASUS43 KDMX 271804
RWRIA

WEATHER ROUNDUP FOR IOWA
NATIONAL WEATHER SERVICE DES MOINES IA
  ISSUED BY NWS QUAD CITIES IA IL
1200 PM CST TUE JAN 27 2015

NOTE: "FAIR" INDICATES FEW OR NO CLOUDS BELOW 12,000 FEET WITH NO
SIGNIFICANT WEATHER AND/OR OBSTRUCTIONS TO VISIBILITY.

* - THESE STATIONS ARE NOT NWS STATIONS...THUS NOT UNDER NWS
QUALITY CONTROL.  THEY ALSO DO NOT REPORT WEATHER SUCH
AS PRECIPITATION OR FOG.

IAZ001>003-012>014-020>022-031>034-043>046-271900-
   NORTHWEST IOWA

CITY           SKY/WX    TMP DP  RH WIND       PRES   REMARKS
CARROLL *      MOSUNNY   41  34  75 SE10      30.13F WCI  35
CHEROKEE *     CLEAR     39  34  83 SE8       30.12F WCI  33
6HR MIN TEMP:  29; 6HR MAX TEMP:  39;

DENNISON *     SUNNY     43  36  75 S8        30.09F WCI  38
LE MARS *      CLOUDY    36  36 100 SE10      30.11F WCI  28
SIOUX CITY     SUNNY     42  35  76 S10       30.11F WCI  36
6HR MIN TEMP:  25; 6HR MAX TEMP:  42;

SPENCER        SUNNY     38  31  76 SE12      30.13S WCI  30
6HR MIN TEMP:  30; 6HR MAX TEMP:  38;

$$

IAZ055>058-069>071-079>083-090>094-271900-
   SOUTHWEST IOWA

CITY           SKY/WX    TMP DP  RH WIND       PRES   REMARKS
ATLANTIC *     SUNNY     43  34  70 S8        30.13F WCI  38
AUDUBON *      SUNNY     43  34  70 SE8       30.13F WCI  38
CLARINDA *     SUNNY     45  34  65 SE7       30.17F
COUNCIL BLFS * SUNNY     45  36  70 SE12      30.11F WCI  39
CRESTON *      SUNNY     43  32  65 SE9       30.14F WCI  37
HARLAN *       SUNNY     41  37  87 S9        30.16F WCI  35
LAMONI         SUNNY     43  31  62 VRB5      30.15F
6HR MIN TEMP:  26; 6HR MAX TEMP:  43;

$$

IAZ047>049-059>061-072>074-084-271900-
   CENTRAL IOWA

CITY           SKY/WX    TMP DP  RH WIND       PRES   REMARKS
AMES           MOSUNNY   40  31  70 S8        30.16F WCI  34
6HR MIN TEMP:  28; 6HR MAX TEMP:  40;

ANKENY *       MOSUNNY   41  30  65 E6        30.17F WCI  37
BOONE *        MOSUNNY   39  32  75 E8        30.14F WCI  34
CHARITON *     SUNNY     43  30  61 E5        30.16F
DES MOINES     MOSUNNY   42  30  62 SE7       30.17F WCI  38
6HR MIN TEMP:  29; 6HR MAX TEMP:  42;

GRINNELL *     CLOUDY    36  30  80 E5        30.18S WCI  32
6HR MIN TEMP:  27; 6HR MAX TEMP:  36;

MARSHALLTOWN   CLOUDY    36  29  75 NE5       30.17R WCI  32
6HR MIN TEMP:  27; 6HR MAX TEMP:  38;

PERRY *          N/A     41  33  75 SE7       30.15F WCI  36
6HR MIN TEMP:  27; 6HR MAX TEMP:  41;

$$

IAZ004>006-015-016-023>025-035-036-271900-
   NORTH CENTRAL IOWA

CITY           SKY/WX    TMP DP  RH WIND       PRES   REMARKS
ALGONA *       PTSUNNY   36  32  87 SE7G14    30.15S WCI  30
CLARION *      PTSUNNY   36  34  93 SE8       30.16S WCI  29
ESTHERVILLE    MOSUNNY   34  30  85 SE9       30.13S WCI  27
6HR MIN TEMP:  26; 6HR MAX TEMP:  34;

FORT DODGE *   SUNNY     37  30  75 SE8       30.16S WCI  31
6HR MIN TEMP:  25; 6HR MAX TEMP:  37;

MASON CITY     CLOUDY    34  28  79 SE6       30.16F WCI  29
6HR MIN TEMP:  31; 6HR MAX TEMP:  35; 6HR PCP: TRACE;

WEBSTER CITY * MOSUNNY   37  36  93 SE8       30.14F WCI  31
IOWA FALLS *   CLOUDY    37  30  77 E6        30.17S WCI  32
6HR MIN TEMP:  30; 6HR MAX TEMP:  37;

$$

IAZ007>011-017>019-026>030-037>042-050>054-066-271900-
   NORTHEAST IOWA

CITY           SKY/WX    TMP DP  RH WIND       PRES   REMARKS
CEDAR RAPIDS   CLOUDY    32  26  78 E6        30.17F WCI  26
6HR MIN TEMP:  29; 6HR MAX TEMP:  33;

CHARLES CITY * CLOUDY    32  30  93 E6        30.17F WCI  26
CLINTON *      CLOUDY    27  21  80 E7        30.22S WCI  19
6HR MIN TEMP:  27; 6HR MAX TEMP:  28;

DECORAH *      CLOUDY    28  23  80 VRB5      30.17S WCI  23
DUBUQUE        CLOUDY    27  21  78 NE7       30.18R WCI  19
6HR MIN TEMP:  27; 6HR MAX TEMP:  29;

MONTICELLO *   CLOUDY    30  27  86 E7        30.18F WCI  23
WATERLOO       CLOUDY    33  28  81 E7        30.18S WCI  27
6HR MIN TEMP:  32; 6HR MAX TEMP:  34;

$$

IAZ064-065-067-068-078-271900-
   EAST CENTRAL IOWA

CITY           SKY/WX    TMP DP  RH WIND       PRES   REMARKS
DAVENPORT      CLOUDY    28  21  75 NE6       30.20R WCI  22
6HR MIN TEMP:  28; 6HR MAX TEMP:  32;

IOWA CITY      CLOUDY    32  26  78 NE6       30.20F WCI  26
6HR MIN TEMP:  29; 6HR MAX TEMP:  34;

MT. PLEASANT * CLOUDY    33  28  82 NE6       30.19S WCI  28
6HR MIN TEMP:  31; 6HR MAX TEMP:  36;

MUSCATINE *    CLOUDY    32  27  80 E9        30.20F WCI  24
QUAD CITIES    CLOUDY    30  22  72 N6        30.20R WCI  24
6HR MIN TEMP:  29; 6HR MAX TEMP:  34;

$$

IAZ062-063-075>077-085>089-095>099-271900-
   SOUTHEAST IOWA

CITY           SKY/WX    TMP DP  RH WIND       PRES   REMARKS
BURLINGTON     CLOUDY    34  27  75 NE8       30.19R WCI  27
6HR MIN TEMP:  33; 6HR MAX TEMP:  36;

FAIRFIELD *    CLOUDY    36  28  75 NE8       30.19S WCI  29
FORT MADISON *   N/A     37  32  81 E8        30.19S WCI  31
KEOKUK *       CLOUDY    37  32  81 VRB5      30.17S WCI  34
OTTUMWA        CLOUDY    37  29  72 NE7       30.17S WCI  32
6HR MIN TEMP:  27; 6HR MAX TEMP:  38;

WASHINGTON *   CLOUDY    34  30  86 NE6       30.19S WCI  29
$$

ABBREVIATIONS USED IN REMARKS
   TC - TEMPERATURES IN CELSIUS
  WCI - WIND CHILL INDEX
   HX - HEAT INDEX
  VSB - VISIBILITY
$$


USA.gov is the U.S. government's official web portal to all federal, state and local government web resources and services.